Regional Weather Roundup
Issued by NWS State College, PA

Home | Current Version | Previous Version | Text Only | Print | Product List | Glossary On
Versions: 1 2 3 4 5 6 7 8 9 10 11 12 13 14 15 16 17 18 19 20 21 22 23 24 25 26 27 28 29 30 31 32 33 34 35 36 37 38 39 40 41 42 43 44 45 46 47 48 49 50
000
ASUS41 KCTP 071003
RWRCTP

REGIONAL WEATHER ROUNDUP
NATIONAL WEATHER SERVICE STATE COLLEGE PA
500 AM EST SUN FEB 07 2016

Note: "fair" indicates few or no clouds below 12,000 feet with no
significant weather and/or obstructions to visibility.

* = STATION THAT DOES NOT REPORT PRECIPITATION /E.G. RAIN...SNOW...ETC/
    THUNDER OR FOG.

PAZ002>004-007>009-013>016-020>023-029>032-071100-
WESTERN PENNSYLVANIA

CITY           SKY/WX    TMP DP  RH WIND       PRES   REMARKS
ERIE           CLEAR     30  17  58 S6        30.13F
MEADVILLE      CLEAR     28  15  58 S6        30.10F
FRANKLIN*      CLEAR     27  12  54 SW3       30.13F
NEW CASTLE     FAIR      21  17  84 CALM      30.14F
BEAVER COUNTY  NOT AVBL
BUTLER*        CLEAR     25  12  58 CALM      30.16F
PITTSBURGH INT CLEAR     25  14  63 CALM      30.13F
PITTSBURGH     CLEAR     31  14  49 S3        30.12F
INDIANA*       CLEAR     23  18  80 CALM      30.16F
LATROBE        CLEAR     21  18  86 CALM      30.15F
WASHINGTON CO* PTCLDY    19  16  86 CALM      30.13F
$$

PAZ004>006-010>012-017>019-024>028-033>037-041-042-045-046-049>053-071100-
CENTRAL PENNSYLVANIA

CITY           SKY/WX    TMP DP  RH WIND       PRES   REMARKS
BRADFORD       CLEAR     21  14  74 CALM      30.08F
DUBOIS         CLEAR     25  12  58 CALM      30.10F
CLEARFIELD     CLEAR     21  17  84 CALM      30.13F
JOHNSTOWN      CLEAR     28  11  48 SW5       30.08F
ALTOONA        CLEAR     26  15  63 CALM      30.12F
STATE COLLEGE  CLEAR     26  17  69 CALM      30.13F
WILLIAMSPORT   CLEAR     23  19  85 CALM      30.18F
SELINSGROVE    CLEAR     21  18  88 CALM      30.18F
FT INDIANTOWN  CLEAR     20  20  99 SE1       30.16F
CAPITAL CITY   CLEAR     22  18  85 CALM      30.18F
HARRISBURG     CLEAR     22  17  81 CALM      30.17F
YORK           CLEAR     19  16  88 CALM      30.18S
$$

PAZ038>040-043-044-047-048-054-055-060>062-067>071-071100-
EASTERN PENNSYLVANIA

CITY           SKY/WX    TMP DP  RH WIND       PRES   REMARKS
SCRANTON       CLEAR     25  17  72 CALM      30.14F
MOUNT POCONO   CLEAR     24  15  68 NW5       30.09F
ALLENTOWN      CLEAR     21  17  84 CALM      30.17F
QUAKERTOWN*    SUNNY     19  18  93 CALM      30.18S
READING        CLEAR     24  19  81 CALM      30.18F
LANCASTER      CLEAR     22  19  89 S5        30.19F
COATESVILLE    SUNNY     27  27 100 W6        30.17F
POTTSTOWN      CLEAR     22  19  89 CALM      30.20F
BLUE BELL        N/A     23  21  93 CALM      30.18F
DOYLESTOWN     CLEAR     22  20  92 CALM      30.17F
WILLOW GROVE   NOT AVBL
NORTH PHILA    CLEAR     27  23  85 CALM      30.21F
PHILADELPHIA   PTCLDY    32  24  72 CALM      30.22S
$$



USA.gov is the U.S. government's official web portal to all federal, state and local government web resources and services.